STARLINK-1308, 45419

Orbit data source: Space-Track

STARLINK-1308, 45419 is a payload satellite owned by SpaceX/Seattle (US) in LEO that was launched on Wed, 18 Mar 2020 UTC via an FALCON 9 launch vehicle from the Air Force Eastern Test Range (AFETR). Payload-class satellites include a variety of spacecraft equipped with specific instruments for various scientific and technological missions. These include communications satellites like Starlink; space stations such as the ISS; scientific satellites like the Hubble; Earth observation satellites from companies like Planet Labs, Umbra, and HawkEye 360; GPS; miniature CubeSats for education and research; and military/defense satellites.

Loading next visibility...
Identifier
45419, 2020-019BM
Orbit
LEO
Country
Flag of USUS
Related business
Manufacturer
SpaceX/Seattle
Mission
Partially operational Commercial Communications
Bus & Motor
STARLINK, Unknown motor
Mass
260 kg wet, ~248 kg dry
Launch date (UTC)
2020-03-18 (7 years ago)
Launch vehicle
FALCON 9
Launch site
Air Force Eastern Test Range (AFETR)
Object type
Payload
Rocket body
Debris
Shape & HBR
Box + 1 Pan, 10.1 m
Radar Cross Section
13.562 m², Large (>1 m²)

Expand to show TLE details & history
Last TLE update: 16 hours ago

TLE from 16 hours ago
0 STARLINK-1308
1 45419U 20019BM  26263.60402851  .00063344  00000-0  38456-3 0  9999
2 45419  53.0398 274.9491 0007334  27.9766 332.1646 15.76902783360207
Epoch: 2026-09-20T14:29Z
TLE epoch observation values (Epoch: 2026-09-20T14:29:48.063Z)
Latitude
-0.00004°
Longitude
58.00298°
Altitude
335.771 km
Speed
7.711 km/s
True Right ascension
18h 19m 47s
True Declination
0° 00' 00"
Sunlit
Object was in daylight at epoch
Visualization orbit readout
Latitude
Unknown
Longitude
Unknown
Altitude
Unknown
Speed
Unknown
Apparent Right ascension
Unknown
Apparent Declination
Unknown
Sunlit
N/A
Visualization observer readout
Local Sidereal Time
23:14:31
Azimuth
Unknown
Elevation
Unknown
Doppler factor
Unknown
Orbital elements
Apogee altitude
344.43 km
Perigee altitude
334.577 km
Semi-major axis
6,717.64 km
Eccentricity
0.00073
Inclination
53.0398°
RAAN
274.9491°
Arg. of periapsis
27.9766°
True anomaly
332.12533°
Mean anomaly
332.1646°
Eccentric anomaly
332.14497°
Mean motion
3.94201 °/min
Orbital period
91.32 mins
BSTAR
0.00038456
Loading maneuver chart data...
Computing Atmospheric mass density...

Documentation

Showing up to 5 results
|